Location: Ajisawe
(8.4333°N, 4.3833°E)
Time: 23:17:01
(UTC+00:00)

S-56A Canister/Altair - Pass Details

Date: 19 April 2021
Orbit: 631 x 2501 km, 38.9° (Epoch: 15 May)

Event Time Altitude Azimuth Distance (km) Brightness Sun altitude
Rises 21:46:54 0° 256° (WSW) 5,519 12.2 -55.2°
Reaches altitude 10° 21:51:40 10° 266° (W) 4,203 11.5 -56.2°
Enters shadow 21:56:18 21° 286° (WNW) 3,056 10.8 -57.1°
